Terminal Aerodrome Forecast
Issued by NWS

Home | Current Version | Previous Version | Text Only | Print | Product List | Glossary On
Versions: 1 2 3 4 5 6 7 8 9 10 11 12 13 14 15 16 17 18 19 20 21 22 23 24 25 26 27 28 29 30 31 32 33 34 35 36 37 38 39 40
000
FTAK31 PAFA 012339
TAFATA
TAF
PATA 012339Z 0200/0224 24005KT 3SM FU OVC035
     FM020600 27005KT 1SM FU SCT015 OVC025
     FM021000 VRB03KT 1/2SM FU VV015
     FM022000 26008KT 1 1/2SM FU SCT030 BKN070=

USA.gov is the U.S. government's official web portal to all federal, state and local government web resources and services.